Wind_Speed
47 44 49 57 48 44 43 41 39 39 40 25 29 26 36 43 39 43 48 54 52 48 48 40 45 41 41 40 39 38 41 44 46 48 52 53 52 49 47 47 48 51 55 58
51 46 59 54 53 46 45 45 45 43 45 34 30 27 32 39 42 45 50 53 54 54 48 40 43 44 41 41 42 43 46 46 49 52 55 57 52 48 46 48 53 56 57 59
55 50 59 60 57 56 51 47 48 46 52 42 40 26 31 38 43 49 53 53 55 51 45 40 44 43 43 42 44 48 49 48 50 53 57 56 51 49 51 54 55 56 59 61
54 58 61 59 58 68 55 57 52 46 46 40 43 36 30 37 36 41 48 58 59 53 52 52 46 50 50 50 51 49 49 50 50 54 57 57 55 54 55 56 56 60 63 67
61 63 62 61 64 70 58 59 59 54 50 41 39 41 37 43 40 44 50 55 62 60 61 60 59 58 57 55 51 52 53 51 52 55 60 64 61 59 59 61 65 66 71 75
67 75 71 68 67 72 69 64 62 58 52 38 41 49 35 43 43 46 48 52 58 58 63 65 65 65 63 61 58 55 54 54 56 60 62 69 73 71 67 69 74 78 79 80
81 80 86 81 79 75 74 66 66 65 60 50 51 46 37 47 51 53 53 59 60 61 59 64 68 67 68 65 63 61 61 61 61 64 67 72 78 81 77 75 77 81 84 86
95 91 89 81 82 86 83 80 78 78 67 56 55 44 44 52 54 56 60 63 65 67 66 68 73 74 73 70 69 68 68 68 69 70 73 75 77 84 87 87 85 83 86 90
108 105 101 104 93 94 89 94 90 88 76 71 56 58 56 57 59 58 60 65 68 72 71 73 72 77 80 76 74 73 74 76 77 78 78 78 81 87 90 89 90 94 97 97
118 124 115 112 109 114 113 105 103 97 86 80 58 68 61 59 65 63 65 67 71 74 77 77 77 76 79 81 82 82 82 82 82 81 83 83 86 90 91 93 97 99 100 101
127 130 119 115 119 112 103 99 100 99 92 89 84 69 63 65 69 71 74 74 77 79 80 77 77 79 82 84 86 87 87 86 89 89 90 92 94 95 96 98 102 105 106 105
115 111 114 118 102 100 98 96 102 106 99 102 96 53 67 72 74 78 80 83 85 83 82 79 82 81 83 89 90 90 91 90 93 94 93 94 96 99 103 105 108 107 109 111
112 111 107 97 93 95 98 101 107 108 104 107 99 78 81 81 82 83 85 93 94 91 93 88 87 85 87 89 92 94 95 95 96 97 97 100 103 106 109 111 112 110 112 114
112 110 105 102 95 96 99 100 104 108 114 100 103 95 82 88 95 93 96 102 100 98 100 103 100 94 88 89 93 97 97 98 101 103 104 106 107 108 110 109 110 112 114 115
108 106 111 106 98 97 98 99 104 111 105 114 103 105 100 97 105 102 102 103 103 106 107 103 108 109 103 101 95 94 96 103 106 108 110 112 115 115 113 112 113 114 112 113
112 115 116 116 103 97 102 104 103 111 114 115 119 109 103 112 109 104 107 108 112 112 111 109 109 106 104 108 110 114 114 109 108 109 111 112 112 114 115 114 114 114 114 110
123 123 123 124 115 118 112 94 101 109 113 111 117 109 108 116 113 111 111 114 116 116 119 119 114 109 108 107 108 111 115 117 121 118 113 114 112 114 115 117 117 114 110 104
112 113 118 120 120 130 105 109 109 105 106 106 113 113 114 108 112 118 117 117 119 122 125 121 121 125 116 114 109 109 113 115 114 117 120 119 118 117 118 117 112 109 106 102
115 112 117 124 129 127 117 94 111 115 109 114 114 108 106 113 120 120 114 121 123 121 127 122 119 117 117 113 113 116 113 119 122 123 120 119 113 112 114 109 104 100 100 99
111 118 122 127 131 129 115 112 111 106 119 107 109 108 119 119 122 115 117 121 120 125 128 127 124 115 114 113 119 124 126 127 125 121 117 110 114 112 105 102 100 98 98 98
109 111 120 122 128 127 120 118 117 118 110 116 119 112 115 118 120 116 118 115 121 125 130 133 129 125 122 129 127 132 133 130 126 125 120 110 103 104 102 100 98 97 99 100
114 115 115 118 123 127 119 113 121 118 115 116 119 118 116 121 121 126 122 125 128 132 135 137 137 137 134 134 137 135 138 135 132 121 110 104 103 101 100 100 100 103 101 101
117 115 118 122 126 115 118 117 117 122 116 114 114 126 126 126 122 126 122 124 133 140 141 142 144 145 140 139 141 141 141 129 120 114 106 101 99 98 101 105 105 105 103 104
119 115 121 118 117 119 119 120 120 121 121 112 112 116 116 114 112 111 118 124 127 125 132 136 131 129 123 122 124 116 111 112 113 108 106 103 103 104 101 101 98 97 99 100
112 112 114 114 114 117 117 124 126 123 120 117 115 117 117 116 111 108 105 117 117 111 109 111 113 114 110 107 104 103 105 110 113 112 108 105 102 99 96 96 94 94 94 93
109 109 111 109 112 115 109 117 125 125 122 119 118 116 115 116 111 108 105 108 115 111 108 107 109 111 110 106 105 102 104 107 108 106 100 95 93 90 89 90 90 89 87 87
Wind_Direction
291 292 292 290 293 289 288 289 289 285 291 291 295 292 287 288 279 272 273 273 273 274 276 275 276 276 269 269 270 275 281 281 282 284 285 288 294 293 290 288 287 288 288 289
285 291 289 292 290 287 285 287 288 285 284 285 288 296 284 281 283 279 274 277 277 275 276 276 274 276 273 267 270 275 284 281 282 284 285 286 290 289 288 288 291 291 292 292
286 284 286 290 291 290 290 287 282 282 281 280 280 286 286 281 280 285 285 283 280 281 283 277 278 277 275 271 274 281 283 281 282 283 283 284 286 287 286 289 290 291 291 293
291 284 283 282 284 284 287 284 281 281 283 280 282 274 277 278 281 285 286 288 287 290 287 284 279 281 279 278 281 281 281 282 282 281 283 284 284 284 284 284 287 291 295 294
291 285 284 285 284 284 285 281 280 279 277 277 283 274 260 272 275 279 279 283 283 289 289 290 290 287 283 283 282 280 281 279 280 285 286 285 285 284 284 287 290 290 295 296
292 287 288 282 284 284 284 281 279 279 277 275 274 271 268 269 271 271 273 269 273 273 279 284 284 284 284 284 283 281 281 281 283 284 283 286 288 286 284 287 290 290 294 295
292 290 296 286 282 281 281 284 284 281 277 274 270 272 274 266 267 269 269 272 275 274 276 276 278 279 280 280 280 281 282 282 283 283 283 285 288 289 289 287 288 290 293 295
293 284 290 290 281 287 283 284 284 279 277 272 272 274 270 266 268 268 270 274 274 272 272 273 275 277 277 278 279 280 281 280 281 282 284 283 284 286 288 290 290 290 292 294
287 284 283 287 281 281 284 289 280 278 277 271 269 273 275 268 267 271 274 275 276 273 270 270 271 273 274 275 276 278 279 281 283 284 282 281 281 280 283 287 290 292 292 292
283 285 280 281 281 285 283 283 276 279 277 278 276 271 273 271 270 268 272 270 272 273 271 270 269 270 272 274 276 278 280 281 281 279 280 280 280 280 280 284 288 289 291 294
286 286 280 279 280 279 275 272 269 271 273 276 272 269 277 279 280 275 274 272 272 272 274 273 275 274 273 274 275 277 278 280 281 281 282 282 282 285 284 286 288 288 290 295
283 278 276 278 271 271 272 269 267 268 270 267 269 284 276 275 272 272 274 275 275 273 273 271 269 272 274 276 278 278 279 280 280 281 283 284 285 286 286 286 290 291 293 294
277 276 278 271 269 270 266 262 262 265 268 268 277 282 274 274 272 272 270 271 271 273 275 275 274 274 276 276 276 277 279 281 281 282 283 286 288 287 287 289 292 293 293 294
278 276 274 272 267 264 261 259 262 264 265 273 271 280 265 270 272 274 273 274 274 274 274 273 273 273 276 278 279 279 280 282 283 285 286 287 288 289 289 290 292 294 295 297
270 270 272 274 268 265 261 260 259 260 266 267 270 273 267 265 270 265 271 276 277 276 274 274 272 271 274 277 280 281 281 283 283 284 285 285 287 288 289 290 291 294 296 298
266 270 270 275 273 267 264 261 258 259 262 263 264 270 270 267 268 270 269 270 273 273 274 274 275 278 278 278 277 278 282 285 288 287 287 288 288 288 288 290 292 295 296 296
257 263 267 269 271 271 264 267 267 262 261 265 266 271 264 265 266 270 270 268 268 270 273 272 274 277 278 280 278 276 278 282 284 288 289 291 289 289 290 293 294 296 296 296
262 263 263 266 268 268 269 268 269 269 268 267 270 269 267 263 261 266 267 267 267 267 272 274 274 274 279 279 281 282 281 281 286 288 290 291 292 291 291 291 294 295 295 294
265 262 263 260 263 267 267 269 270 272 270 270 269 272 273 268 267 263 266 267 267 268 273 276 274 274 276 280 281 283 284 285 287 289 290 290 289 288 291 292 292 293 294 293
260 260 261 263 263 267 270 267 268 269 267 269 272 272 269 270 270 270 271 269 271 272 275 277 277 278 278 282 286 287 289 291 292 291 290 291 292 290 290 290 292 292 292 291
260 259 261 262 264 267 270 268 266 269 273 269 267 270 273 273 272 272 274 277 279 280 280 281 284 285 286 285 284 286 288 290 293 294 292 291 290 291 290 290 291 292 292 293
264 264 263 262 264 265 268 268 267 268 269 268 269 272 272 271 272 273 275 274 275 278 279 279 281 281 282 284 285 288 290 290 292 291 290 290 291 291 291 292 293 294 294 294
263 264 264 265 264 266 266 267 267 267 270 271 270 269 270 270 271 270 270 271 273 274 275 275 277 278 282 283 283 284 286 287 286 286 289 289 290 290 291 292 293 294 294 294
264 263 264 266 266 268 267 267 267 268 267 267 266 266 268 270 270 270 269 271 270 270 272 273 275 276 279 279 280 282 283 284 285 287 288 289 289 288 288 288 290 290 289 290
268 267 268 267 267 265 267 267 267 268 270 270 268 268 268 266 266 267 267 268 270 270 271 273 276 277 278 279 280 280 282 282 283 284 284 284 284 285 285 285 286 286 287 289
268 269 267 268 267 267 266 267 268 268 268 268 269 268 268 270 270 269 266 266 270 271 271 271 272 273 275 276 277 277 278 278 279 280 282 281 282 283 283 284 283 285 287 288
Height
10746 10749 10740 10729 10739 10739 10738 10738 10739 10733 10727 10736 10731 10731 10719 10710 10717 10715 10708 10706 10711 10713 10714 10719 10713 10716 10717 10716 10715 10714 10712 10710 10708 10705 10702 10700 10698 10697 10693 10691 10689 10686 10682 10679
10736 10743 10724 10726 10724 10727 10727 10728 10727 10728 10721 10724 10725 10727 10717 10707 10700 10698 10697 10695 10695 10696 10702 10706 10703 10702 10704 10704 10703 10702 10699 10697 10694 10691 10688 10685 10684 10682 10680 10678 10675 10671 10667 10665
10723 10729 10717 10713 10714 10712 10714 10716 10715 10716 10709 10718 10715 10720 10709 10704 10698 10690 10680 10681 10678 10682 10688 10693 10690 10690 10691 10691 10691 10689 10687 10685 10682 10676 10671 10669 10668 10667 10665 10662 10658 10655 10651 10648
10715 10711 10705 10705 10707 10688 10708 10696 10701 10702 10701 10705 10705 10713 10704 10695 10694 10686 10676 10662 10661 10669 10669 10671 10679 10676 10676 10677 10678 10675 10673 10671 10667 10661 10654 10652 10651 10651 10648 10644 10641 10637 10634 10631
10704 10695 10694 10693 10688 10676 10695 10687 10683 10686 10688 10693 10694 10692 10699 10688 10687 10678 10669 10662 10652 10652 10649 10654 10655 10658 10659 10659 10660 10659 10657 10654 10651 10646 10639 10633 10633 10634 10632 10628 10624 10618 10615 10610
10687 10675 10683 10680 10675 10665 10668 10672 10670 10670 10674 10684 10679 10670 10691 10681 10678 10668 10663 10655 10648 10649 10651 10643 10643 10641 10639 10641 10643 10642 10641 10639 10635 10629 10624 10615 10609 10611 10613 10609 10605 10599 10595 10589
10665 10665 10659 10661 10657 10654 10648 10654 10653 10656 10658 10670 10662 10663 10673 10666 10661 10659 10652 10641 10642 10635 10635 10634 10629 10629 10626 10625 10625 10625 10624 10623 10619 10614 10609 10602 10589 10583 10589 10589 10584 10578 10572 10567
10642 10645 10638 10645 10637 10631 10638 10633 10634 10626 10638 10653 10648 10658 10656 10648 10642 10641 10639 10631 10629 10622 10621 10620 10617 10612 10609 10609 10608 10608 10607 10603 10599 10596 10592 10585 10579 10568 10561 10561 10559 10555 10549 10543
10610 10613 10616 10622 10617 10606 10619 10620 10611 10598 10617 10620 10642 10641 10639 10632 10626 10625 10621 10611 10608 10603 10602 10599 10602 10598 10595 10593 10590 10590 10587 10585 10584 10580 10573 10568 10562 10552 10545 10540 10532 10527 10523 10518
10590 10575 10590 10588 10589 10595 10587 10589 10584 10583 10585 10593 10627 10615 10620 10618 10611 10610 10604 10594 10585 10581 10582 10582 10583 10582 10576 10573 10572 10570 10568 10566 10563 10558 10552 10548 10538 10530 10529 10521 10511 10503 10497 10490
10556 10545 10559 10554 10564 10567 10558 10558 10562 10556 10560 10565 10574 10604 10604 10601 10596 10588 10580 10573 10566 10561 10560 10563 10565 10561 10557 10555 10550 10548 10546 10545 10538 10533 10529 10524 10517 10508 10504 10498 10489 10482 10474 10465
10517 10510 10513 10527 10531 10534 10532 10537 10531 10528 10541 10525 10535 10591 10588 10573 10569 10563 10557 10549 10538 10542 10541 10545 10539 10539 10540 10532 10526 10525 10523 10520 10514 10509 10506 10499 10493 10484 10476 10471 10463 10456 10447 10440
10479 10475 10480 10491 10503 10509 10498 10504 10499 10501 10503 10499 10518 10550 10546 10549 10544 10537 10532 10519 10516 10521 10518 10515 10518 10521 10512 10508 10506 10502 10499 10494 10489 10485 10480 10473 10466 10458 10450 10444 10434 10429 10420 10412
10437 10437 10442 10451 10470 10471 10467 10476 10478 10473 10464 10498 10486 10506 10538 10526 10510 10508 10500 10490 10491 10493 10495 10495 10493 10489 10492 10489 10483 10476 10472 10469 10463 10457 10452 10448 10442 10433 10424 10417 10410 10401 10391 10382
10410 10404 10408 10416 10430 10440 10442 10445 10446 10438 10457 10450 10475 10467 10486 10504 10478 10482 10476 10469 10454 10464 10459 10461 10460 10464 10467 10469 10462 10455 10452 10444 10437 10432 10427 10423 10417 10406 10398 10391 10382 10372 10363 10354
10385 10380 10382 10381 10399 10406 10401 10407 10413 10429 10427 10415 10426 10437 10468 10449 10455 10462 10449 10438 10428 10430 10423 10429 10430 10433 10437 10436 10437 10433 10425 10422 10414 10403 10395 10390 10385 10375 10369 10361 10352 10344 10334 10327
10358 10359 10357 10351 10368 10360 10348 10400 10398 10387 10392 10398 10393 10417 10426 10414 10419 10422 10417 10412 10400 10395 10387 10397 10402 10407 10407 10405 10405 10403 10398 10389 10383 10376 10366 10360 10353 10346 10339 10331 10322 10314 10304 10298
10335 10333 10328 10324 10329 10302 10349 10363 10359 10365 10369 10374 10362 10362 10364 10391 10393 10376 10377 10377 10369 10366 10358 10373 10376 10375 10379 10375 10371 10369 10365 10361 10352 10344 10335 10330 10325 10316 10309 10301 10292 10284 10276 10268
10296 10301 10291 10283 10286 10286 10296 10344 10345 10331 10329 10337 10328 10338 10348 10339 10333 10342 10352 10338 10333 10343 10335 10340 10336 10344 10350 10347 10342 10334 10327 10320 10316 10311 10305 10302 10294 10286 10278 10273 10265 10258 10249 10242
10269 10264 10257 10255 10244 10246 10278 10303 10310 10311 10260 10314 10324 10317 10294 10295 10287 10312 10318 10304 10312 10309 10303 10297 10298 10308 10311 10310 10306 10297 10288 10281 10280 10275 10269 10267 10260 10254 10249 10242 10236 10231 10222 10216
10238 10238 10225 10223 10214 10219 10245 10260 10267 10253 10269 10264 10266 10274 10275 10273 10269 10275 10279 10285 10281 10275 10265 10257 10253 10261 10272 10272 10263 10260 10257 10252 10245 10238 10235 10234 10229 10223 10218 10214 10206 10200 10193 10186
10201 10204 10208 10203 10195 10192 10211 10231 10225 10227 10230 10230 10230 10233 10242 10243 10247 10242 10250 10248 10248 10243 10236 10230 10228 10227 10236 10234 10225 10227 10223 10219 10215 10208 10205 10205 10199 10192 10187 10180 10176 10169 10163 10158
10164 10176 10171 10163 10162 10177 10183 10185 10190 10187 10190 10199 10199 10197 10194 10205 10214 10214 10221 10218 10215 10210 10204 10200 10201 10197 10203 10205 10199 10197 10192 10189 10181 10178 10178 10176 10172 10167 10162 10154 10149 10141 10136 10128
10128 10143 10129 10136 10147 10147 10146 10147 10146 10143 10148 10159 10166 10167 10168 10170 10174 10174 10171 10180 10184 10182 10179 10176 10173 10169 10172 10171 10170 10170 10160 10154 10147 10150 10151 10149 10145 10139 10135 10130 10126 10120 10112 10107
10105 10110 10105 10107 10114 10112 10119 10102 10099 10107 10117 10123 10125 10122 10125 10128 10140 10141 10145 10139 10141 10148 10152 10149 10146 10144 10145 10142 10143 10144 10137 10126 10119 10120 10122 10119 10115 10113 10109 10103 10099 10094 10088 10084
10068 10071 10066 10075 10077 10063 10084 10077 10058 10061 10072 10078 10081 10088 10091 10090 10097 10104 10116 10118 10112 10117 10119 10122 10120 10115 10114 10116 10114 10116 10110 10098 10093 10094 10092 10089 10086 10084 10081 10078 10071 10068 10065 10060